Provo, UT

2:17 AM MDT on May 21, 2018 (GMT -0600)
Provo Municipal

Weather History for KPVU - November, 2011

Change the Weather History Date:

Thursday, November 24, 2011

  Actual Average Record
Temperature  
Mean Temperature 44 °F -  
Max Temperature 55 °F 42 °F 63 °F (2017)
Min Temperature 33 °F 26 °F 15 °F (1999)
Degree Days  
Heating Degree Days 21    
Moisture  
Dew Point 29 °F    
Average Humidity 55    
Maximum Humidity 81    
Minimum Humidity 33    
Precipitation  
Precipitation 0.00 in - - ()
Sea Level Pressure  
Sea Level Pressure 29.96 in    
Wind  
Wind Speed 12 mph (SE)    
Max Wind Speed 20 mph    
Max Gust Speed 26 mph    
Visibility 12 miles    
Events      
Averages and records for this station are not official NWS values.
T = Trace of Precipitation, MM = Missing Value Source: NWS Daily Summary

Daily Weather History Graph

Daily Weather History Graph

Search for Another Location

Airport or City:

Astronomy

Nov. 24, 2011 Rise Set
Actual Time 7:22 AM MST 5:04 PM MST
Civil Twilight 6:52 AM MST 5:33 PM MST
Nautical Twilight 6:19 AM MST 6:07 PM MST
Astronomical Twilight 5:46 AM MST 6:39 PM MST
Moon 6:44 AM MST (11/24) 4:38 PM MST (11/24)
Length of Visible Light 10h 41m
Length of Day
9h 41m
Waning Crescent, 0% of the Moon is Illuminated
Nov 24
Waning Crescent
Nov 24
New
Dec 2
First Quarter
Dec 10
Full
Dec 17
Last Quarter

Hourly Weather History & Observations

Time (MST) Temp. Windchill Dew Point Humidity Pressure Visibility Wind Dir Wind Speed Gust Speed Precip Events Conditions
12:15 AM 46.4 °F 39.2 °F 28.4 °F 50% 29.99 in 10.0 mi SE 18.4 mph 26.5 mph N/A   Clear
12:35 AM 46.4 °F 39.2 °F 28.4 °F 50% 29.98 in 10.0 mi SE 18.4 mph - N/A   Clear
12:55 AM 46.4 °F 39.0 °F 28.4 °F 50% 29.97 in 10.0 mi SSE 19.6 mph - N/A   Clear
1:15 AM 46.4 °F 39.5 °F 28.4 °F 50% 29.97 in 10.0 mi SE 17.3 mph - N/A   Clear
1:35 AM 46.4 °F 39.5 °F 28.4 °F 50% 29.96 in 10.0 mi SSE 17.3 mph - N/A   Clear
1:55 AM 44.6 °F 38.4 °F 28.4 °F 53% 29.96 in 10.0 mi SE 12.7 mph - N/A   Clear
2:15 AM 44.6 °F 40.2 °F 28.4 °F 53% 29.96 in 10.0 mi ESE 8.1 mph - N/A   Clear
2:35 AM 44.6 °F 40.7 °F 26.6 °F 49% 29.96 in 10.0 mi SE 6.9 mph - N/A   Clear
2:55 AM 44.6 °F 40.2 °F 28.4 °F 53% 29.96 in 10.0 mi ESE 8.1 mph - N/A   Clear
3:15 AM 44.6 °F 37.8 °F 28.4 °F 53% 29.96 in 10.0 mi SE 15.0 mph 18.4 mph N/A   Clear
3:35 AM 44.6 °F 37.4 °F 28.4 °F 53% 29.95 in 10.0 mi SE 16.1 mph - N/A   Clear
3:55 AM 44.6 °F 39.2 °F 28.4 °F 53% 29.95 in 10.0 mi SE 10.4 mph - N/A   Clear
4:15 AM 44.6 °F 37.4 °F 28.4 °F 53% 29.95 in 10.0 mi SE 16.1 mph - N/A   Clear
4:35 AM 44.6 °F 37.8 °F 28.4 °F 53% 29.95 in 10.0 mi SE 15.0 mph - N/A   Clear
4:55 AM 44.6 °F 40.7 °F 28.4 °F 53% 29.95 in 10.0 mi ESE 6.9 mph - N/A   Clear
5:15 AM 44.6 °F 39.2 °F 28.4 °F 53% 29.95 in 10.0 mi ESE 10.4 mph - N/A   Clear
5:35 AM 44.6 °F 39.7 °F 28.4 °F 53% 29.95 in 10.0 mi SE 9.2 mph - N/A   Clear
5:55 AM 44.6 °F 39.7 °F 28.4 °F 53% 29.95 in 10.0 mi SE 9.2 mph - N/A   Clear
6:35 AM 44.6 °F 38.1 °F 28.4 °F 53% 29.97 in 10.0 mi SSE 13.8 mph - N/A   Clear
6:49 AM 44.6 °F 38.1 °F 26.6 °F 49% 29.97 in 10.0 mi SE 13.8 mph - N/A   Mostly Cloudy
7:54 AM 39.2 °F - 28.4 °F 65% 29.99 in 15.0 mi Calm Calm - N/A   Overcast
8:52 AM 44.6 °F 40.2 °F 30.2 °F 57% 29.99 in 15.0 mi SSE 8.1 mph - N/A   Overcast
9:52 AM 48.2 °F - 30.2 °F 50% 29.99 in 15.0 mi SSE 13.8 mph - N/A   Overcast
10:57 AM 50.0 °F - 30.2 °F 47% 29.99 in 15.0 mi SSE 4.6 mph - N/A   Overcast
11:48 AM 51.8 °F - 30.2 °F 44% 29.98 in 15.0 mi SE 4.6 mph - N/A   Overcast
12:48 PM 53.6 °F - 30.2 °F 41% 29.95 in 15.0 mi ESE 4.6 mph - N/A   Mostly Cloudy
1:49 PM 53.6 °F - 30.2 °F 41% 29.93 in 15.0 mi Calm Calm - N/A   Mostly Cloudy
2:49 PM 55.4 °F - 26.6 °F 33% 29.93 in 15.0 mi Calm Calm - N/A   Mostly Cloudy
4:49 PM 51.8 °F - 28.4 °F 41% 29.92 in 15.0 mi Calm Calm - N/A   Scattered Clouds
5:47 PM 46.4 °F 45.2 °F 28.4 °F 50% 29.93 in 15.0 mi SE 3.5 mph - N/A   Scattered Clouds
6:55 PM 41.0 °F - 28.4 °F 61% 29.95 in 15.0 mi Calm Calm - N/A   Scattered Clouds
7:49 PM 39.2 °F 35.9 °F 30.2 °F 70% 29.96 in 15.0 mi East 4.6 mph - N/A   Scattered Clouds
8:52 PM 39.2 °F - 30.2 °F 70% 29.96 in 15.0 mi Calm Calm - N/A   Scattered Clouds
9:15 PM 35.6 °F - 30.2 °F 81% 29.96 in 10.0 mi Calm Calm - N/A   Clear
9:35 PM 37.4 °F - 30.2 °F 75% 29.97 in 10.0 mi Calm Calm - N/A   Clear
9:55 PM 33.8 °F - 26.6 °F 75% 29.97 in 10.0 mi Calm Calm - N/A   Clear
10:55 PM 35.6 °F 29.9 °F 28.4 °F 75% 29.99 in 10.0 mi SE 6.9 mph - N/A   Clear
11:15 PM 35.6 °F 29.2 °F 28.4 °F 75% 29.99 in 10.0 mi SSE 8.1 mph - N/A   Clear